Snowfall_Accumulation
0.0 0.0 0.0 0.0 0.0 0.0 0.0 0.0 0.0 0.0 0.0 0.0 0.0 0.0 0.0 0.0 0.0 0.0 0.0 0.0 0.0 0.0 0.0 0.0 0.0 0.0 0.0 0.0 0.0 0.0 0.0 0.0 0.2 0.2 0.2 0.0 0.0 0.0 0.0 0.0 0.0 0.0 0.0
0.0 0.0 0.0 0.0 0.0 0.0 0.0 0.0 0.0 0.0 0.0 0.0 0.0 0.0 0.0 0.0 0.0 0.0 0.0 0.0 0.0 0.0 0.0 0.0 0.0 0.0 0.0 0.0 0.0 0.0 0.0 0.0 0.1 0.0 0.0 0.0 0.0 0.0 0.0 0.0 0.0 0.0 0.0
0.0 0.0 0.0 0.0 0.0 0.0 0.0 0.0 0.0 0.0 0.0 0.0 0.0 0.0 0.0 0.0 0.0 0.0 0.0 0.0 0.0 0.0 0.0 0.0 0.0 0.0 0.0 0.1 0.1 0.1 0.2 0.0 0.1 0.0 0.0 0.0 0.0 0.0 0.0 0.0 0.0 0.0 0.0
0.0 0.0 0.0 0.0 0.0 0.0 0.0 0.0 0.0 0.0 0.0 0.0 0.0 0.0 0.0 0.0 0.0 0.0 0.0 0.0 0.0 0.0 0.0 0.0 0.0 0.0 0.0 0.0 0.0 0.0 0.0 0.0 0.0 0.0 0.1 0.1 0.0 0.0 0.0 0.0 0.0 0.0 0.0
0.0 0.0 0.0 0.0 0.0 0.0 0.0 0.0 0.0 0.0 0.0 0.0 0.0 0.0 0.0 0.0 0.0 0.0 0.0 0.0 0.0 0.0 0.0 0.0 0.0 nan nan nan 0.0 0.0 0.0 0.0 0.0 0.2 0.2 0.1 0.2 0.0 0.0 0.0 0.0 0.0 0.0
0.0 0.0 0.0 0.0 0.0 0.0 0.0 0.0 0.0 0.0 0.0 0.0 0.0 0.0 0.0 0.0 nan nan 0.0 0.0 0.0 0.0 0.0 0.0 0.0 0.0 0.0 nan nan nan nan 0.0 0.1 0.4 0.5 0.2 0.0 0.0 0.0 0.0 0.1 0.4 0.6
0.0 0.0 0.0 0.0 0.0 0.0 0.0 0.0 0.0 0.0 0.0 0.0 0.0 0.0 0.0 0.0 nan nan nan 0.1 0.0 0.0 0.0 0.0 0.0 0.0 nan 0.0 nan nan nan nan nan 0.0 0.0 0.0 0.0 0.0 0.0 0.2 0.1 0.5 0.2
0.0 0.0 0.0 0.0 0.0 0.0 0.0 0.0 0.0 0.0 0.0 0.0 0.0 0.0 0.0 0.0 nan nan nan 0.0 0.0 0.0 0.0 0.0 0.0 0.0 0.0 0.0 0.0 0.0 0.0 0.0 0.0 0.0 0.0 0.0 0.0 0.0 0.0 0.1 0.0 0.0 0.0
0.0 0.0 0.0 0.0 0.0 0.0 0.0 0.0 0.0 0.0 0.1 0.1 0.0 0.0 0.0 0.0 nan nan 0.0 0.0 0.0 0.0 0.0 0.0 0.0 0.0 nan nan 0.0 0.1 0.0 0.0 nan nan nan nan nan nan nan 0.2 0.6 1.0 0.4
0.0 0.0 0.0 0.0 0.0 0.0 0.0 0.0 0.1 0.0 0.0 0.2 0.0 0.0 nan 0.0 nan nan nan 0.0 0.0 0.0 0.0 0.0 nan 0.0 nan nan 0.0 0.0 0.0 0.0 0.0 0.0 0.0 0.0 nan nan nan 0.0 0.6 3.9 2.1
0.0 0.0 0.0 0.0 0.0 0.0 0.0 0.0 0.0 0.1 0.1 0.1 0.0 0.0 0.0 0.0 0.0 nan nan 0.0 0.0 0.0 0.0 0.0 0.0 nan nan nan nan 0.0 0.0 0.0 0.0 0.0 0.0 0.0 0.0 0.0 0.0 0.0 0.0 3.2 5.6
0.0 0.0 0.0 0.0 0.0 0.0 0.0 0.0 0.0 0.0 0.0 0.0 0.0 0.0 0.0 0.0 nan nan nan nan nan 0.0 0.0 0.0 0.0 nan nan nan nan nan nan nan 0.0 0.0 0.2 0.3 0.7 0.8 0.6 0.5 0.1 0.4 0.6
0.0 0.0 0.0 0.0 0.0 0.0 0.0 0.0 0.0 0.0 0.0 0.0 0.0 0.0 0.0 0.0 0.0 nan nan nan nan 0.0 0.0 0.0 nan nan nan nan nan nan nan 0.1 0.1 0.7 0.8 1.3 1.3 1.5 1.3 1.4 0.6 0.7 2.1
0.0 0.0 0.0 0.0 0.0 0.0 0.0 0.0 0.0 0.0 0.0 0.0 0.0 0.0 0.0 0.0 0.0 0.0 0.0 0.0 nan 0.0 nan 0.2 nan 0.0 nan nan 0.0 0.0 0.1 0.0 0.3 0.9 1.1 0.7 1.0 2.9 2.9 2.3 5.8 4.9 6.4
0.0 0.0 0.0 0.0 0.0 0.0 0.0 0.0 0.0 0.0 0.0 0.0 0.0 0.0 0.0 0.0 0.0 0.0 0.0 0.0 0.0 0.0 nan 0.0 0.0 0.0 0.1 0.0 0.0 0.0 0.0 0.0 0.7 0.8 1.6 1.7 1.5 2.5 3.3 3.3 6.2 7.1 9.5
0.0 0.0 0.0 0.0 0.0 0.0 0.0 0.0 nan nan nan nan nan 0.0 0.0 nan nan nan nan nan nan nan 0.0 0.0 0.2 0.3 0.3 0.0 0.0 0.1 0.1 0.8 0.8 1.6 2.1 2.4 4.2 5.4 6.4 7.2 8.0 8.9 10.2
0.0 0.0 0.0 0.0 0.0 0.0 0.0 0.1 0.1 0.0 nan nan nan nan nan nan nan nan nan nan nan nan 0.0 0.6 0.6 0.6 0.7 0.7 0.9 1.5 3.2 1.5 2.0 5.2 4.9 5.8 6.7 6.9 7.7 8.0 8.4 7.2 6.8
0.0 nan 0.0 0.0 0.0 0.0 0.0 0.0 0.0 0.0 0.0 0.0 nan nan nan nan nan nan nan nan 0.0 nan 0.7 1.0 1.6 1.6 1.9 2.8 3.1 4.1 3.9 3.9 4.9 5.5 6.6 8.0 9.6 10.9 10.5 9.4 7.7 9.9 7.4
0.0 0.0 0.0 0.0 0.0 0.0 0.0 0.1 0.0 0.1 0.0 0.0 0.0 0.0 nan nan nan nan nan 0.0 0.4 0.7 0.8 1.1 0.9 1.5 2.2 2.6 2.7 3.4 3.4 5.9 7.7 10.0 8.6 10.4 10.0 11.6 9.5 7.2 5.9 3.8 nan
0.0 nan 0.0 0.0 0.0 0.0 0.1 0.1 0.1 0.2 0.2 0.1 0.1 0.1 0.1 0.3 0.7 0.3 0.3 0.4 0.5 0.5 0.5 0.7 0.8 1.3 2.0 3.0 4.1 4.6 5.9 6.0 6.5 6.4 7.7 9.2 9.1 8.8 9.3 6.9 4.4 7.1 4.1
0.0 0.0 nan 0.0 0.1 0.1 0.1 0.2 0.2 0.3 0.4 0.3 0.2 0.1 nan 0.6 0.7 0.5 0.5 0.6 0.7 0.8 1.1 1.0 1.2 1.7 2.5 3.4 4.5 5.8 7.2 6.9 6.4 8.1 7.7 7.4 8.3 9.5 4.3 4.4 4.1 3.6 5.1
0.0 0.0 0.0 0.0 0.1 0.3 0.2 0.3 0.3 0.4 0.4 0.4 0.3 0.4 nan 0.1 0.8 1.1 1.1 1.2 1.2 1.2 1.1 1.9 2.7 3.0 3.8 6.7 7.3 8.2 7.4 7.9 8.0 8.7 7.8 6.7 6.7 5.5 5.0 5.0 4.5 4.6 5.5
0.0 0.0 0.0 0.0 0.1 nan 0.4 0.4 0.7 0.6 0.5 0.4 0.4 0.4 0.5 0.5 0.5 1.2 1.4 1.0 1.4 1.7 1.4 1.7 2.8 3.8 3.0 5.3 6.7 9.5 12.7 9.8 7.9 8.0 8.4 8.7 7.9 8.2 7.9 7.3 5.0 5.5 4.0
0.0 0.0 0.0 0.0 0.0 0.1 0.2 0.3 0.3 nan 0.6 0.6 0.5 0.3 0.3 0.2 0.2 0.5 0.7 0.7 1.1 0.9 1.3 1.7 2.3 3.3 3.9 6.2 6.8 8.5 10.0 11.2 8.4 8.8 10.4 10.7 8.2 5.6 5.7 6.3 5.0 5.0 4.5
0.0 0.0 0.0 0.0 0.1 0.1 0.1 0.2 0.4 0.5 0.9 0.8 0.9 0.9 0.5 0.6 0.7 1.3 0.8 1.3 1.7 2.0 1.5 1.5 2.5 3.9 4.9 6.8 7.4 8.1 7.4 nan 5.1 2.2 5.0 5.5 6.5 6.3 6.3 6.1 4.2 4.0 4.2
0.1 0.0 0.1 0.2 0.3 0.3 0.4 1.2 1.9 1.9 2.7 2.0 2.8 3.1 2.2 2.5 2.1 2.8 2.5 2.5 3.1 2.3 2.7 2.9 3.7 5.5 6.3 7.0 7.3 3.4 nan nan 1.8 nan 2.9 4.8 4.8 4.3 3.9 4.5 4.3 4.0 4.0
Water_Equivalent
0.00 0.00 0.00 0.00 0.00 0.00 0.00 0.00 0.00 0.00 0.00 0.00 0.00 0.00 0.00 0.00 0.00 0.00 0.00 0.00 0.00 0.00 0.00 0.00 0.00 0.00 0.00 0.00 0.00 0.00 0.00 0.00 0.06 0.09 0.07 0.00 0.00 0.00 0.00 0.00 0.00 0.00 0.00
0.00 0.00 0.00 0.00 0.00 0.00 0.00 0.00 0.00 0.00 0.00 0.00 0.00 0.00 0.00 0.00 0.00 0.00 0.00 0.00 0.00 0.00 0.00 0.00 0.00 0.00 0.00 0.00 0.00 0.00 0.00 0.00 0.04 0.01 0.01 0.01 0.00 0.00 0.00 0.00 0.00 0.00 0.00
0.00 0.00 0.00 0.00 0.00 0.00 0.00 0.00 0.00 0.00 0.00 0.00 0.00 0.00 0.00 0.00 0.00 0.00 0.00 0.00 0.00 0.00 0.00 0.00 0.00 0.00 0.00 0.03 0.03 0.06 0.06 0.01 0.04 0.01 0.00 0.00 0.00 0.00 0.00 0.00 0.00 0.00 0.00
0.00 0.00 0.00 0.00 0.00 0.00 0.00 0.00 0.00 0.00 0.00 0.00 0.00 0.00 0.00 0.00 0.00 0.00 0.00 0.00 0.00 0.00 0.00 0.00 0.00 0.00 0.00 0.00 0.00 0.00 0.00 0.00 0.00 0.01 0.02 0.04 0.00 0.00 0.01 0.00 0.00 0.00 0.00
0.00 0.00 0.00 0.00 0.00 0.00 0.00 0.00 0.00 0.00 0.00 0.00 0.00 0.00 0.00 0.00 0.00 0.00 0.00 0.00 0.00 0.00 0.00 0.00 0.00 nan nan nan 0.00 0.00 0.00 0.00 0.01 0.10 0.08 0.05 0.08 0.01 0.00 0.00 0.00 0.00 0.00
0.00 0.00 0.00 0.00 0.00 0.00 0.00 0.00 0.00 0.00 0.00 0.00 0.00 0.00 0.00 0.00 nan nan 0.00 0.00 0.00 0.00 0.00 0.00 0.00 0.00 0.00 nan nan nan nan 0.00 0.02 0.14 0.19 0.06 0.00 0.00 0.00 0.00 0.02 0.11 0.14
0.00 0.00 0.00 0.00 0.00 0.00 0.00 0.00 0.00 0.00 0.00 0.00 0.00 0.00 0.00 0.00 nan nan nan 0.03 0.02 0.02 0.02 0.01 0.00 0.00 nan 0.00 nan nan nan nan nan 0.00 0.00 0.00 0.00 0.00 0.01 0.06 0.03 0.14 0.05
0.00 0.00 0.00 0.00 0.00 0.00 0.00 0.00 0.00 0.00 0.01 0.00 0.01 0.01 0.01 0.00 nan nan nan 0.01 0.00 0.01 0.01 0.01 0.00 0.00 0.00 0.00 0.00 0.01 0.01 0.00 0.00 0.00 0.00 0.00 0.00 0.00 0.01 0.03 0.01 0.01 0.00
0.00 0.00 0.00 0.00 0.00 0.00 0.00 0.01 0.00 0.01 0.02 0.02 0.01 0.01 0.01 0.01 nan nan 0.00 0.00 0.00 0.00 0.00 0.00 0.00 0.00 nan nan 0.00 0.03 0.00 0.00 nan nan nan nan nan nan nan 0.06 0.18 0.27 0.13
0.00 0.00 0.00 0.00 0.00 0.00 0.00 0.01 0.03 0.01 0.02 0.09 0.01 0.01 nan 0.00 nan nan nan 0.00 0.00 0.00 0.00 0.00 nan 0.00 nan nan 0.00 0.00 0.00 0.00 0.00 0.01 0.00 0.00 nan nan nan 0.00 0.19 0.98 0.54
0.00 0.00 0.00 0.00 0.00 0.00 0.02 0.02 0.02 0.02 0.02 0.02 0.01 0.00 0.00 0.00 0.00 nan nan 0.00 0.00 0.00 0.00 0.00 0.00 nan nan nan nan 0.00 0.00 0.00 0.00 0.00 0.00 0.00 0.00 0.01 0.00 0.02 0.01 0.84 1.33
0.00 0.00 0.00 0.00 0.00 0.00 0.01 0.01 0.01 0.01 0.00 0.00 0.00 0.00 0.00 0.00 nan nan nan nan nan 0.00 0.00 0.00 0.00 nan nan nan nan nan nan nan 0.00 0.00 0.06 0.12 0.21 0.24 0.22 0.17 0.02 0.10 0.17
0.00 0.00 0.00 0.00 0.00 0.00 0.00 0.00 0.00 0.00 0.00 0.00 0.00 0.00 0.00 0.00 0.00 nan nan nan nan 0.00 0.00 0.00 nan nan nan nan nan nan nan 0.02 0.01 0.16 0.24 0.41 0.40 0.45 0.35 0.33 0.15 0.19 0.48
0.00 0.00 0.00 0.00 0.00 0.00 0.00 0.00 0.00 0.00 0.00 0.00 0.00 0.00 0.00 0.00 0.00 0.00 0.00 0.00 nan 0.00 nan 0.08 nan 0.00 nan nan 0.00 0.00 0.02 0.00 0.07 0.18 0.23 0.20 0.28 0.64 0.57 0.52 1.00 0.90 1.13
0.00 0.00 0.00 0.00 0.00 0.00 0.00 0.00 0.00 0.00 0.00 0.00 0.00 0.00 0.00 0.00 0.00 0.00 0.00 0.00 0.00 0.01 nan 0.00 0.00 0.00 0.04 0.00 0.00 0.00 0.00 0.00 0.17 0.17 0.32 0.34 0.34 0.51 0.59 0.70 1.07 1.25 1.49
0.00 0.00 0.00 0.00 0.00 0.00 0.00 0.00 nan nan nan nan nan 0.00 0.00 nan nan nan nan nan nan nan 0.01 0.00 0.06 0.08 0.08 0.00 0.01 0.01 0.03 0.20 0.19 0.38 0.44 0.49 0.74 0.89 1.03 1.23 1.37 1.37 1.45
0.00 0.00 0.00 0.00 0.00 0.00 0.00 0.02 0.02 0.00 nan nan nan nan nan nan nan nan nan nan nan nan 0.00 0.15 0.15 0.15 0.16 0.17 0.22 0.35 0.69 0.36 0.53 1.14 1.00 1.04 1.09 1.12 1.23 1.24 1.25 1.07 0.95
0.00 nan 0.00 0.00 0.00 0.00 0.00 0.01 0.01 0.01 0.01 0.00 nan nan nan nan nan nan nan nan 0.01 nan 0.17 0.25 0.36 0.36 0.42 0.62 0.68 0.91 0.85 0.81 0.99 1.10 1.21 1.36 1.54 1.72 1.61 1.36 1.10 1.24 1.01
0.00 0.00 0.00 0.00 0.00 0.00 0.01 0.01 0.01 0.01 0.00 0.00 0.00 0.00 nan nan nan nan nan 0.00 0.10 0.18 0.19 0.26 0.21 0.36 0.50 0.60 0.61 0.74 0.70 1.24 1.67 1.94 1.51 1.71 1.63 1.80 1.37 1.04 0.84 0.55 nan
0.00 nan 0.00 0.00 0.01 0.01 0.01 0.03 0.03 0.05 0.05 0.02 0.01 0.01 0.03 0.09 0.22 0.10 0.09 0.12 0.14 0.13 0.12 0.18 0.20 0.32 0.49 0.70 0.94 1.01 1.31 1.35 1.38 1.30 1.43 1.59 1.43 1.33 1.30 0.94 0.59 0.96 0.58
0.00 0.00 nan 0.00 0.01 0.03 0.03 0.05 0.05 0.07 0.08 0.07 0.04 0.04 nan 0.17 0.17 0.13 0.12 0.15 0.17 0.20 0.25 0.22 0.31 0.45 0.64 0.80 1.02 1.24 1.57 1.49 1.37 1.70 1.62 1.38 1.31 1.31 0.60 0.60 0.58 0.54 0.75
0.00 0.00 0.00 0.00 0.03 0.07 0.06 0.08 0.08 0.09 0.08 0.09 0.05 0.09 nan 0.03 0.17 0.22 0.22 0.24 0.24 0.24 0.23 0.37 0.59 0.65 0.88 1.44 1.56 1.75 1.53 1.62 1.64 1.81 1.61 1.32 1.10 0.78 0.69 0.69 0.64 0.71 0.82
0.00 0.00 0.00 0.00 0.02 nan 0.11 0.08 0.13 0.11 0.09 0.08 0.07 0.08 0.09 0.11 0.10 0.25 0.26 0.20 0.28 0.33 0.26 0.34 0.58 0.79 0.67 1.09 1.53 2.05 2.63 1.78 1.65 1.68 1.52 1.27 1.10 1.06 1.07 1.05 0.77 0.81 0.61
0.00 0.00 0.00 0.00 0.00 0.02 0.04 0.06 0.06 nan 0.13 0.13 0.10 0.06 0.05 0.04 0.04 0.09 0.16 0.16 0.22 0.20 0.30 0.38 0.50 0.68 0.80 1.23 1.27 1.63 1.97 2.17 1.86 1.88 2.13 2.01 1.33 0.90 0.88 0.91 0.74 0.67 0.66
0.00 0.00 0.00 0.01 0.01 0.02 0.02 0.06 0.08 0.08 0.13 0.13 0.13 0.14 0.11 0.13 0.13 0.23 0.16 0.27 0.35 0.40 0.30 0.31 0.54 0.73 0.84 1.18 1.35 1.48 1.38 nan 1.25 0.72 1.05 1.06 1.11 0.99 1.00 0.98 0.64 0.64 0.60
0.01 0.01 0.01 0.04 0.07 0.07 0.09 0.20 0.30 0.31 0.42 0.30 0.39 0.44 0.32 0.35 0.30 0.48 0.42 0.41 0.50 0.40 0.44 0.50 0.59 0.81 1.00 1.28 1.41 0.91 nan nan 0.48 nan 0.63 0.92 0.83 0.76 0.71 0.74 0.65 0.65 0.61
SL_Ratio
nan nan nan nan nan nan nan nan nan nan nan nan nan nan nan nan nan nan nan nan nan nan nan nan nan nan nan nan nan nan nan nan 2.5 2.5 2.5 nan nan nan nan nan nan nan nan
nan nan nan nan nan nan nan nan nan nan nan nan nan nan nan nan nan nan nan nan nan nan nan nan nan nan nan nan nan nan nan 0.0 2.5 2.6 2.5 2.5 nan nan nan nan nan nan nan
nan nan nan nan nan nan nan nan nan nan nan nan nan nan nan nan nan nan nan nan nan nan nan nan nan nan nan 2.5 2.5 2.5 2.5 2.4 2.5 2.5 nan nan nan nan nan nan nan nan nan
nan nan nan nan nan nan nan nan nan nan nan nan nan nan nan nan nan nan nan nan nan nan nan nan nan nan nan nan nan nan nan 0.0 0.0 2.4 2.5 2.5 nan nan 2.6 nan nan nan nan
nan nan nan nan nan nan nan nan nan nan nan nan nan nan nan nan nan nan nan nan nan nan nan nan nan nan nan nan 2.5 nan 2.9 nan 2.5 2.5 2.5 2.5 2.6 2.8 nan nan nan nan nan
nan nan nan nan nan nan nan nan nan nan nan nan nan nan nan nan nan nan nan nan nan nan nan 2.5 nan nan nan nan nan nan nan nan 2.7 2.8 2.9 3.0 nan nan nan nan 3.2 3.4 4.2
nan nan nan nan nan nan nan nan nan nan nan nan nan nan nan nan nan nan nan 2.5 2.5 2.5 2.5 2.6 3.3 nan nan nan nan nan nan nan nan 5.0 nan nan nan nan 3.3 3.5 3.3 3.4 3.7
nan nan nan nan nan nan nan nan 2.3 2.5 2.5 2.5 2.5 2.4 2.5 nan nan nan nan 2.5 2.9 2.9 2.8 3.1 0.0 nan nan nan nan 2.8 2.8 nan nan nan nan nan nan 2.5 3.0 3.4 3.5 3.4 2.5
nan nan nan nan nan nan 0.0 2.4 2.5 2.6 2.5 2.5 2.4 2.6 2.6 2.9 nan nan nan 3.0 2.5 3.0 nan nan nan nan nan nan nan 3.0 nan nan nan nan nan nan nan nan nan 2.9 3.2 3.5 3.4
nan nan nan nan nan 0.0 5.0 2.5 2.5 2.5 2.5 2.5 2.7 2.7 nan 2.7 nan nan nan nan nan nan nan nan nan nan nan nan nan nan nan 3.0 4.2 3.3 2.2 2.9 nan nan nan 2.5 3.3 4.0 3.9
nan nan nan nan nan 1.7 2.5 2.5 2.5 2.9 2.9 2.9 3.0 5.0 nan nan nan nan nan nan nan nan 2.5 nan nan nan nan nan nan nan nan nan nan 2.5 2.5 0.0 2.5 2.5 nan 3.0 3.5 3.9 4.2
nan nan nan 2.5 5.0 2.7 2.5 2.6 2.9 2.8 3.1 0.0 nan nan nan nan nan nan nan nan nan nan nan nan nan nan nan nan nan nan nan nan nan nan 2.7 2.6 3.3 3.2 2.8 2.8 3.2 3.4 3.6
nan nan nan nan nan nan nan nan nan nan nan nan nan nan nan nan nan nan nan nan nan nan nan nan nan nan nan nan nan nan nan 2.9 3.5 4.2 3.2 3.3 3.3 3.3 3.9 4.3 3.9 3.9 4.4
nan nan nan nan nan nan nan nan nan nan nan nan nan nan nan nan nan nan nan nan nan nan nan 2.9 nan nan nan nan 0.0 nan 3.0 2.5 4.4 4.7 4.6 3.6 3.6 4.6 5.1 4.5 5.8 5.4 5.7
nan nan 0.0 5.0 5.0 0.0 nan nan nan nan nan nan nan nan nan nan nan nan nan nan nan 2.6 nan nan nan nan 3.2 0.0 nan nan 2.5 3.3 4.4 4.4 4.9 5.1 4.5 4.9 5.5 4.7 5.8 5.7 6.4
nan nan nan nan 1.7 nan 2.9 3.3 nan nan nan nan nan nan nan nan nan nan nan nan nan nan 2.2 2.5 3.6 3.6 3.9 4.3 4.1 4.2 3.2 3.9 4.2 4.3 4.8 5.0 5.7 6.0 6.2 5.8 5.8 6.5 7.0
2.8 nan nan nan nan nan 2.9 3.3 3.8 3.3 nan nan nan nan nan nan nan nan nan nan nan nan 4.2 3.9 4.1 4.2 4.2 4.1 4.2 4.2 4.6 4.0 3.8 4.5 5.0 5.6 6.2 6.2 6.3 6.5 6.7 6.8 7.1
2.2 nan nan nan nan 0.0 3.8 3.5 3.4 3.9 4.2 nan nan nan nan nan nan nan nan nan 3.5 nan 3.9 4.1 4.5 4.5 4.4 4.5 4.5 4.5 4.6 4.8 5.0 5.0 5.4 5.9 6.2 6.3 6.6 6.9 7.0 8.0 7.3
5.0 nan nan nan nan 7.5 3.5 3.7 3.6 3.8 3.9 10.0 2.5 5.0 nan nan nan nan nan 3.8 3.8 4.1 4.1 4.2 4.1 4.3 4.4 4.3 4.4 4.6 4.8 4.7 4.6 5.1 5.7 6.1 6.1 6.5 6.9 6.9 7.0 7.0 nan
nan nan nan 3.6 3.6 3.7 3.8 4.0 4.2 4.1 4.3 4.1 4.3 4.1 3.9 3.0 3.4 3.1 3.0 3.4 3.8 4.0 4.0 4.1 4.0 3.9 4.1 4.2 4.4 4.5 4.5 4.4 4.7 4.9 5.4 5.8 6.4 6.6 7.2 7.4 7.4 7.4 7.1
nan nan nan 3.8 3.7 3.7 3.8 4.1 4.1 4.1 4.2 4.4 4.1 3.7 nan 3.7 4.2 4.0 3.7 3.9 4.1 4.2 4.3 4.4 3.9 3.8 3.9 4.3 4.5 4.7 4.6 4.7 4.7 4.7 4.8 5.4 6.3 7.3 7.2 7.2 7.0 6.7 6.8
nan nan nan 5.0 4.1 4.2 3.8 3.8 4.0 4.8 4.8 5.0 4.9 4.2 nan 4.2 4.8 5.1 5.2 4.9 5.0 4.9 4.7 5.0 4.6 4.6 4.4 4.6 4.7 4.7 4.9 4.9 4.9 4.8 4.9 5.1 6.0 7.1 7.2 7.2 7.0 6.4 6.7
nan 10.0 5.0 nan 4.3 nan 4.0 4.3 5.4 5.4 5.3 5.2 4.9 4.9 4.9 5.1 5.3 5.0 5.3 5.1 4.9 5.0 5.3 5.1 4.8 4.8 4.4 4.9 4.4 4.6 4.8 5.5 4.8 4.8 5.5 6.9 7.2 7.7 7.3 6.9 6.5 6.9 6.6
nan nan nan nan 5.0 4.3 4.3 4.8 4.9 nan 4.4 5.0 4.9 4.6 4.7 5.3 5.4 5.5 4.5 4.4 4.8 4.7 4.3 4.6 4.6 5.0 4.8 5.0 5.4 5.2 5.1 5.2 4.5 4.7 4.9 5.3 6.2 6.2 6.5 6.9 6.8 7.5 6.8
nan nan 5.0 4.5 4.4 4.5 4.8 4.2 5.0 6.3 6.7 6.6 6.7 6.3 4.9 5.0 5.5 5.5 4.9 5.0 4.8 5.1 5.0 5.0 4.7 5.3 5.8 5.8 5.5 5.5 5.4 nan 4.1 3.0 4.7 5.2 5.8 6.4 6.4 6.2 6.6 6.3 7.0
3.7 3.9 4.0 4.1 4.4 4.6 5.1 6.2 6.2 6.1 6.4 6.5 7.2 7.0 6.9 7.2 7.0 5.9 5.9 6.0 6.2 5.8 6.2 5.8 6.4 6.8 6.3 5.5 5.2 3.8 nan nan 3.8 nan 4.6 5.2 5.8 5.7 5.5 6.0 6.6 6.2 6.5